Time,TemperatureF,DewpointF,PressureIn,WindDirection,WindDirectionDegrees,WindSpeedMPH,WindSpeedGustMPH,Humidity,HourlyPrecipIn,Conditions,Clouds,dailyrainin,SoftwareType,DateUTC
2013-03-21 00:00:00,40.0,29.9,30.01,NNE,30,0.0,5.0,67,0.00,BKN,,0.00,WeatherDisplay:10.37,2013-03-21 04:00:00,
2013-03-21 00:10:00,39.5,29.8,30.01,NNW,346,0.0,1.0,68,0.00,BKN,,0.00,WeatherDisplay:10.37,2013-03-21 04:10:00,
2013-03-21 00:20:00,38.9,30.3,30.00,NNW,346,0.0,1.0,71,0.00,SCT,,0.00,WeatherDisplay:10.37,2013-03-21 04:20:00,
2013-03-21 00:30:00,38.7,30.1,30.00,NE,46,1.0,4.0,71,0.00,SCT,,0.00,WeatherDisplay:10.37,2013-03-21 04:30:00,
2013-03-21 00:40:00,38.5,30.3,30.00,NE,46,0.0,2.0,72,0.00,CLR,,0.00,WeatherDisplay:10.37,2013-03-21 04:40:00,
2013-03-21 00:50:00,38.5,29.9,30.00,NE,46,2.0,4.0,71,0.00,BKN,,0.00,WeatherDisplay:10.37,2013-03-21 04:50:00,
2013-03-21 01:00:00,38.5,30.3,30.00,NE,46,1.0,4.0,72,0.00,BKN,,0.00,WeatherDisplay:10.37,2013-03-21 05:00:00,
2013-03-21 01:10:00,38.3,30.1,30.00,NE,46,0.0,5.0,72,0.00,OVC,,0.00,WeatherDisplay:10.37,2013-03-21 05:10:00,
2013-03-21 01:20:00,38.2,29.9,30.00,NE,46,1.0,4.0,72,0.00,OVC,,0.00,WeatherDisplay:10.37,2013-03-21 05:20:00,
2013-03-21 01:30:00,38.0,30.1,30.00,NE,46,0.0,4.0,73,0.00,OVC,,0.00,WeatherDisplay:10.37,2013-03-21 05:30:00,
2013-03-21 01:40:00,38.0,29.8,30.00,NE,47,2.0,4.0,72,0.00,BKN,,0.00,WeatherDisplay:10.37,2013-03-21 05:40:00,
2013-03-21 01:50:00,38.0,29.4,30.00,NE,39,3.0,7.0,71,0.00,BKN,,0.00,WeatherDisplay:10.37,2013-03-21 05:50:00,
2013-03-21 02:00:00,37.8,29.5,30.00,NE,42,3.0,12.0,72,0.00,BKN,,0.00,WeatherDisplay:10.37,2013-03-21 06:00:00,
2013-03-21 02:10:00,37.3,29.8,30.00,NE,45,2.0,7.0,74,0.00,OVC,,0.00,WeatherDisplay:10.37,2013-03-21 06:10:00,
2013-03-21 02:20:00,36.9,29.7,30.00,NE,49,3.0,6.0,75,0.00,OVC,,0.00,WeatherDisplay:10.37,2013-03-21 06:20:00,
2013-03-21 02:30:00,36.4,29.2,30.00,NE,44,2.0,5.0,75,0.00,OVC,,0.00,WeatherDisplay:10.37,2013-03-21 06:30:00,
2013-03-21 02:40:00,35.9,29.1,30.00,NNE,28,1.0,7.0,76,0.00,SCT,,0.00,WeatherDisplay:10.37,2013-03-21 06:40:00,
2013-03-21 02:50:00,35.6,28.8,30.00,NNE,16,0.0,7.0,76,0.00,CLR,,0.00,WeatherDisplay:10.37,2013-03-21 06:50:00,
2013-03-21 03:00:00,35.1,27.6,29.99,NE,37,1.0,7.0,74,0.00,CLR,,0.00,WeatherDisplay:10.37,2013-03-21 07:00:00,
2013-03-21 03:10:00,34.7,27.2,29.99,NNE,28,2.0,7.0,74,0.00,SCT,,0.00,WeatherDisplay:10.37,2013-03-21 07:10:00,
2013-03-21 03:20:00,34.3,26.9,29.99,NNE,26,2.0,6.0,74,0.00,SCT,,0.00,WeatherDisplay:10.37,2013-03-21 07:20:00,
2013-03-21 03:30:00,34.2,25.7,30.00,NNE,32,2.0,12.0,71,0.00,SCT,,0.00,WeatherDisplay:10.37,2013-03-21 07:30:00,
2013-03-21 03:40:00,33.9,24.4,30.00,NNE,21,2.0,10.0,68,0.00,CLR,,0.00,WeatherDisplay:10.37,2013-03-21 07:40:00,
2013-03-21 03:50:00,33.6,23.4,30.00,NNE,12,2.0,12.0,66,0.00,CLR,,0.00,WeatherDisplay:10.37,2013-03-21 07:50:00,
2013-03-21 04:00:00,33.3,23.1,30.00,NNE,17,2.0,8.0,66,0.00,CLR,,0.00,WeatherDisplay:10.37,2013-03-21 08:00:00,
2013-03-21 04:10:00,33.0,21.8,30.00,NE,38,1.0,7.0,63,0.00,CLR,,0.00,WeatherDisplay:10.37,2013-03-21 08:10:00,
2013-03-21 04:20:00,32.6,21.0,30.00,NNE,19,7.0,14.0,62,0.00,CLR,,0.00,WeatherDisplay:10.37,2013-03-21 08:20:00,
2013-03-21 04:30:00,32.3,20.0,30.00,NNE,23,6.0,14.0,60,0.00,CLR,,0.00,WeatherDisplay:10.37,2013-03-21 08:30:00,
2013-03-21 04:40:00,31.9,19.6,30.00,NNE,20,3.0,10.0,60,0.00,CLR,,0.00,WeatherDisplay:10.37,2013-03-21 08:40:00,
2013-03-21 04:50:00,31.6,19.3,30.00,NE,36,5.0,12.0,60,0.00,CLR,,0.00,WeatherDisplay:10.37,2013-03-21 08:50:00,
2013-03-21 05:00:00,31.2,19.3,30.00,NNE,21,0.0,7.0,61,0.00,CLR,,0.00,WeatherDisplay:10.37,2013-03-21 09:00:00,
2013-03-21 05:10:00,30.8,18.9,30.00,NNE,24,1.0,8.0,61,0.00,CLR,,0.00,WeatherDisplay:10.37,2013-03-21 09:10:00,
2013-03-21 05:20:00,30.5,19.1,30.00,NE,34,1.0,8.0,62,0.00,CLR,,0.00,WeatherDisplay:10.37,2013-03-21 09:20:00,
2013-03-21 05:30:00,30.2,18.7,30.01,NNE,13,0.0,4.0,62,0.00,CLR,,0.00,WeatherDisplay:10.37,2013-03-21 09:30:00,
2013-03-21 05:40:00,29.9,17.7,30.00,NNE,28,7.0,13.0,60,0.00,SCT,,0.00,WeatherDisplay:10.37,2013-03-21 09:40:00,
2013-03-21 05:50:00,29.7,17.1,30.01,NNE,19,1.0,7.0,59,0.00,SCT,,0.00,WeatherDisplay:10.37,2013-03-21 09:50:00,
2013-03-21 06:00:00,29.5,16.1,30.01,NE,34,3.0,12.0,57,0.00,SCT,,0.00,WeatherDisplay:10.37,2013-03-21 10:00:00,
2013-03-21 06:10:00,29.5,15.7,30.01,NE,50,6.0,10.0,56,0.00,SCT,,0.00,WeatherDisplay:10.37,2013-03-21 10:10:00,
2013-03-21 06:20:00,29.4,15.6,30.01,NE,42,3.0,8.0,56,0.00,SCT,,0.00,WeatherDisplay:10.37,2013-03-21 10:20:00,
2013-03-21 06:30:00,29.2,15.4,30.01,NE,36,0.0,5.0,56,0.00,SCT,,0.00,WeatherDisplay:10.37,2013-03-21 10:30:00,
2013-03-21 06:40:00,28.9,14.7,30.01,NE,39,2.0,12.0,55,0.00,SCT,,0.00,WeatherDisplay:10.37,2013-03-21 10:40:00,
2013-03-21 06:50:00,28.8,14.2,30.01,NE,44,6.0,9.0,54,0.00,SCT,,0.00,WeatherDisplay:10.37,2013-03-21 10:50:00,
2013-03-21 07:00:00,28.7,15.0,30.01,NE,39,1.0,5.0,56,0.00,SCT,,0.00,WeatherDisplay:10.37,2013-03-21 11:00:00,
2013-03-21 07:10:00,28.5,13.5,30.01,NNE,17,0.0,6.0,53,0.00,CLR,,0.00,WeatherDisplay:10.37,2013-03-21 11:10:00,
2013-03-21 07:20:00,28.2,14.5,30.01,North,11,1.0,3.0,56,0.00,CLR,,0.00,WeatherDisplay:10.37,2013-03-21 11:20:00,
2013-03-21 07:30:00,28.0,13.5,30.01,NNE,19,2.0,5.0,54,0.00,CLR,,0.00,WeatherDisplay:10.37,2013-03-21 11:30:00,
2013-03-21 07:40:00,27.9,12.5,30.01,NE,40,3.0,8.0,52,0.00,CLR,,0.00,WeatherDisplay:10.37,2013-03-21 11:40:00,
2013-03-21 07:50:00,27.8,12.0,30.01,NE,52,6.0,14.0,51,0.00,SCT,,0.00,WeatherDisplay:10.37,2013-03-21 11:50:00,
2013-03-21 08:00:00,27.6,11.8,30.01,NE,56,5.0,10.0,51,0.00,SCT,,0.00,WeatherDisplay:10.37,2013-03-21 12:00:00,
2013-03-21 08:10:00,27.8,12.0,30.02,ENE,59,2.0,10.0,51,0.00,CLR,,0.00,WeatherDisplay:10.37,2013-03-21 12:10:00,
2013-03-21 08:20:00,28.1,12.7,30.03,NE,46,0.0,4.0,52,0.00,CLR,,0.00,WeatherDisplay:10.37,2013-03-21 12:20:00,
2013-03-21 08:30:00,28.4,11.6,30.03,NE,40,1.0,8.0,49,0.00,CLR,,0.00,WeatherDisplay:10.37,2013-03-21 12:30:00,
2013-03-21 08:40:00,28.5,11.7,30.03,North,356,5.0,8.0,49,0.00,CLR,,0.00,WeatherDisplay:10.37,2013-03-21 12:40:00,
2013-03-21 08:50:00,28.6,11.4,30.03,NE,47,3.0,8.0,48,0.00,CLR,,0.00,WeatherDisplay:10.37,2013-03-21 12:50:00,
2013-03-21 09:00:00,28.6,12.3,30.04,NE,44,5.0,12.0,50,0.00,CLR,,0.00,WeatherDisplay:10.37,2013-03-21 13:00:00,
2013-03-21 09:10:00,28.8,12.5,30.05,NE,43,3.0,13.0,50,0.00,CLR,,0.00,WeatherDisplay:10.37,2013-03-21 13:10:00,
2013-03-21 09:20:00,29.0,13.1,30.05,NE,39,8.0,12.0,51,0.00,CLR,,0.00,WeatherDisplay:10.37,2013-03-21 13:20:00,
2013-03-21 09:30:00,29.2,12.4,30.05,ENE,63,6.0,13.0,49,0.00,CLR,,0.00,WeatherDisplay:10.37,2013-03-21 13:30:00,
2013-03-21 09:40:00,29.2,12.3,30.06,NE,35,5.0,16.0,49,0.00,CLR,,0.00,WeatherDisplay:10.37,2013-03-21 13:40:00,
2013-03-21 09:50:00,29.5,13.1,30.06,NE,39,7.0,17.0,50,0.00,CLR,,0.00,WeatherDisplay:10.37,2013-03-21 13:50:00,
2013-03-21 10:00:00,29.5,13.2,30.06,NE,48,5.0,12.0,50,0.00,CLR,,0.00,WeatherDisplay:10.37,2013-03-21 14:00:00,
2013-03-21 10:10:00,29.9,13.5,30.06,NE,46,5.0,16.0,50,0.00,CLR,,0.00,WeatherDisplay:10.37,2013-03-21 14:10:00,
2013-03-21 10:20:00,30.5,13.1,30.06,NE,55,5.0,17.0,48,0.00,CLR,,0.00,WeatherDisplay:10.37,2013-03-21 14:20:00,
2013-03-21 10:30:00,30.8,13.4,30.06,NE,49,3.0,13.0,48,0.00,CLR,,0.00,WeatherDisplay:10.37,2013-03-21 14:30:00,
2013-03-21 10:40:00,30.3,11.0,30.06,NE,37,3.0,16.0,44,0.00,CLR,,0.00,WeatherDisplay:10.37,2013-03-21 14:40:00,
2013-03-21 10:50:00,31.4,12.4,30.07,ENE,58,2.0,8.0,45,0.00,CLR,,0.00,WeatherDisplay:10.37,2013-03-21 14:50:00,
2013-03-21 11:00:00,32.2,11.7,30.06,ESE,106,8.0,15.0,42,0.00,CLR,,0.00,WeatherDisplay:10.37,2013-03-21 15:00:00,
2013-03-21 11:10:00,31.7,10.6,30.07,NE,45,7.0,17.0,41,0.00,CLR,,0.00,WeatherDisplay:10.37,2013-03-21 15:10:00,
2013-03-21 11:20:00,31.6,10.0,30.07,NE,48,8.0,17.0,40,0.00,CLR,,0.00,WeatherDisplay:10.37,2013-03-21 15:20:00,
2013-03-21 11:30:00,32.4,11.8,30.07,East,79,2.0,14.0,42,0.00,CLR,,0.00,WeatherDisplay:10.37,2013-03-21 15:30:00,
2013-03-21 11:40:00,32.9,12.2,30.06,NE,53,3.0,13.0,42,0.00,CLR,,0.00,WeatherDisplay:10.37,2013-03-21 15:40:00,
2013-03-21 11:50:00,33.8,12.5,30.07,NNW,339,3.0,8.0,41,0.00,CLR,,0.00,WeatherDisplay:10.37,2013-03-21 15:50:00,
2013-03-21 12:00:00,33.8,11.4,30.06,NE,37,6.0,14.0,39,0.00,CLR,,0.00,WeatherDisplay:10.37,2013-03-21 16:00:00,
2013-03-21 12:10:00,34.7,13.9,30.06,ENE,68,5.0,17.0,42,0.00,CLR,,0.00,WeatherDisplay:10.37,2013-03-21 16:10:00,
2013-03-21 12:20:00,34.4,13.1,30.06,East,84,3.0,13.0,41,0.00,CLR,,0.00,WeatherDisplay:10.37,2013-03-21 16:20:00,
2013-03-21 12:30:00,34.8,11.8,30.06,NE,51,12.0,18.0,38,0.00,CLR,,0.00,WeatherDisplay:10.37,2013-03-21 16:30:00,
2013-03-21 12:40:00,35.3,13.4,30.06,NE,40,5.0,14.0,40,0.00,CLR,,0.00,WeatherDisplay:10.37,2013-03-21 16:40:00,
2013-03-21 12:50:00,35.5,11.1,30.06,SW,234,5.0,12.0,36,0.00,CLR,,0.00,WeatherDisplay:10.37,2013-03-21 16:50:00,
2013-03-21 13:00:00,36.2,11.1,30.05,North,9,3.0,10.0,35,0.00,CLR,,0.00,WeatherDisplay:10.37,2013-03-21 17:00:00,
2013-03-21 13:10:00,36.5,12.1,30.05,NE,54,2.0,10.0,36,0.00,CLR,,0.00,WeatherDisplay:10.37,2013-03-21 17:10:00,
2013-03-21 13:20:00,37.0,13.1,30.04,ENE,67,7.0,12.0,37,0.00,CLR,,0.00,WeatherDisplay:10.37,2013-03-21 17:20:00,
2013-03-21 13:30:00,37.5,12.9,30.04,NE,51,5.0,14.0,36,0.00,CLR,,0.00,WeatherDisplay:10.37,2013-03-21 17:30:00,
2013-03-21 13:40:00,37.8,11.9,30.04,North,3,5.0,13.0,34,0.00,CLR,,0.00,WeatherDisplay:10.37,2013-03-21 17:40:00,
2013-03-21 13:50:00,38.0,12.1,30.03,NW,318,2.0,10.0,34,0.00,CLR,,0.00,WeatherDisplay:10.37,2013-03-21 17:50:00,
2013-03-21 14:00:00,38.4,11.8,30.03,ESE,119,3.0,7.0,33,0.00,CLR,,0.00,WeatherDisplay:10.37,2013-03-21 18:00:00,
2013-03-21 14:10:00,39.4,14.0,30.02,NE,42,6.0,14.0,35,0.00,CLR,,0.00,WeatherDisplay:10.37,2013-03-21 18:10:00,
2013-03-21 14:20:00,40.0,12.5,30.02,North,10,2.0,10.0,32,0.00,CLR,,0.00,WeatherDisplay:10.37,2013-03-21 18:20:00,
2013-03-21 14:30:00,40.4,11.4,30.01,SSW,199,3.0,10.0,30,0.00,CLR,,0.00,WeatherDisplay:10.37,2013-03-21 18:30:00,
2013-03-21 14:40:00,40.9,13.3,30.01,ENE,63,7.0,14.0,32,0.00,CLR,,0.00,WeatherDisplay:10.37,2013-03-21 18:40:00,
2013-03-21 14:50:00,41.2,12.8,30.01,NNE,19,7.0,14.0,31,0.00,CLR,,0.00,WeatherDisplay:10.37,2013-03-21 18:50:00,
2013-03-21 15:00:00,40.8,13.2,30.01,SSW,200,3.0,12.0,32,0.00,CLR,,0.00,WeatherDisplay:10.37,2013-03-21 19:00:00,
2013-03-21 15:10:00,42.0,12.0,30.00,NNE,31,3.0,14.0,29,0.00,CLR,,0.00,WeatherDisplay:10.37,2013-03-21 19:10:00,
2013-03-21 15:20:00,42.5,14.7,30.00,NE,56,8.0,16.0,32,0.00,CLR,,0.00,WeatherDisplay:10.37,2013-03-21 19:20:00,
2013-03-21 15:30:00,42.4,13.1,30.00,NE,48,9.0,18.0,30,0.00,CLR,,0.00,WeatherDisplay:10.37,2013-03-21 19:30:00,
2013-03-21 15:40:00,43.0,13.6,29.99,NE,53,7.0,12.0,30,0.00,CLR,,0.00,WeatherDisplay:10.37,2013-03-21 19:40:00,
2013-03-21 15:50:00,43.8,14.3,29.99,NE,55,5.0,12.0,30,0.00,CLR,,0.00,WeatherDisplay:10.37,2013-03-21 19:50:00,
2013-03-21 16:00:00,43.5,14.8,29.99,ENE,67,5.0,12.0,31,0.00,CLR,,0.00,WeatherDisplay:10.37,2013-03-21 20:00:00,
2013-03-21 16:10:00,44.1,14.6,29.99,NNE,24,5.0,8.0,30,0.00,CLR,,0.00,WeatherDisplay:10.37,2013-03-21 20:10:00,
2013-03-21 16:20:00,44.5,14.2,29.99,ESE,105,5.0,12.0,29,0.00,CLR,,0.00,WeatherDisplay:10.37,2013-03-21 20:20:00,
2013-03-21 16:30:00,44.2,14.7,29.99,NNW,328,3.0,20.0,30,0.00,CLR,,0.00,WeatherDisplay:10.37,2013-03-21 20:30:00,
2013-03-21 16:40:00,44.5,14.1,29.98,West,263,9.0,12.0,29,0.00,CLR,,0.00,WeatherDisplay:10.37,2013-03-21 20:40:00,
2013-03-21 16:50:00,44.3,16.3,29.98,South,191,1.0,14.0,32,0.00,CLR,,0.00,WeatherDisplay:10.37,2013-03-21 20:50:00,
2013-03-21 17:00:00,45.4,15.8,29.98,NNE,14,3.0,8.0,30,0.00,CLR,,0.00,WeatherDisplay:10.37,2013-03-21 21:00:00,
2013-03-21 17:10:00,45.5,15.8,29.97,NE,40,2.0,6.0,30,0.00,CLR,,0.00,WeatherDisplay:10.37,2013-03-21 21:10:00,
2013-03-21 17:20:00,45.2,16.3,29.97,ESE,102,2.0,8.0,31,0.00,CLR,,0.00,WeatherDisplay:10.37,2013-03-21 21:20:00,
2013-03-21 17:30:00,45.1,16.2,29.97,ENE,61,2.0,10.0,31,0.00,CLR,,0.00,WeatherDisplay:10.37,2013-03-21 21:30:00,
2013-03-21 17:40:00,45.3,15.7,29.97,SSE,147,3.0,10.0,30,0.00,CLR,,0.00,WeatherDisplay:10.37,2013-03-21 21:40:00,
2013-03-21 17:50:00,45.5,15.8,29.97,North,354,3.0,8.0,30,0.00,CLR,,0.00,WeatherDisplay:10.37,2013-03-21 21:50:00,
2013-03-21 18:00:00,45.4,15.0,29.97,SW,236,2.0,7.0,29,0.00,CLR,,0.00,WeatherDisplay:10.37,2013-03-21 22:00:00,
2013-03-21 18:10:00,45.8,15.3,29.96,WSW,241,2.0,7.0,29,0.00,CLR,,0.00,WeatherDisplay:10.37,2013-03-21 22:10:00,
2013-03-21 18:20:00,46.1,16.3,29.96,WSW,251,1.0,6.0,30,0.00,CLR,,0.00,WeatherDisplay:10.37,2013-03-21 22:20:00,
2013-03-21 18:30:00,45.4,16.4,29.96,NE,48,6.0,12.0,31,0.00,CLR,,0.00,WeatherDisplay:10.37,2013-03-21 22:30:00,
2013-03-21 18:40:00,45.3,17.1,29.96,NE,39,0.0,3.0,32,0.00,CLR,,0.00,WeatherDisplay:10.37,2013-03-21 22:40:00,
2013-03-21 18:50:00,45.7,16.8,29.96,NE,38,2.0,6.0,31,0.00,CLR,,0.00,WeatherDisplay:10.37,2013-03-21 22:50:00,
2013-03-21 19:00:00,44.6,18.0,29.96,NE,52,0.0,10.0,34,0.00,CLR,,0.00,WeatherDisplay:10.37,2013-03-21 23:00:00,
2013-03-21 19:10:00,44.3,18.3,29.96,NE,55,0.0,2.0,35,0.00,CLR,,0.00,WeatherDisplay:10.37,2013-03-21 23:10:00,
2013-03-21 19:20:00,43.7,17.1,29.96,NE,55,0.0,3.0,34,0.00,CLR,,0.00,WeatherDisplay:10.37,2013-03-21 23:20:00,
2013-03-21 19:30:00,42.8,18.9,29.96,NE,55,0.0,4.0,38,0.00,CLR,,0.00,WeatherDisplay:10.37,2013-03-21 23:30:00,
2013-03-21 19:40:00,42.0,16.9,29.96,NE,54,1.0,4.0,36,0.00,CLR,,0.00,WeatherDisplay:10.37,2013-03-21 23:40:00,
2013-03-21 19:50:00,41.5,17.1,29.97,NE,53,0.0,2.0,37,0.00,CLR,,0.00,WeatherDisplay:10.37,2013-03-21 23:50:00,
2013-03-21 20:00:00,40.9,17.2,29.97,NE,53,0.0,2.0,38,0.00,CLR,,0.00,WeatherDisplay:10.37,2013-03-22 00:00:00,
2013-03-21 20:10:00,40.2,16.6,29.97,NE,53,0.0,1.0,38,0.00,CLR,,0.00,WeatherDisplay:10.37,2013-03-22 00:10:00,
2013-03-21 20:20:00,39.6,20.0,29.97,NE,53,0.0,0.0,45,0.00,CLR,,0.00,WeatherDisplay:10.37,2013-03-22 00:20:00,
2013-03-21 20:30:00,39.0,17.8,29.98,NE,53,0.0,0.0,42,0.00,CLR,,0.00,WeatherDisplay:10.37,2013-03-22 00:30:00,
2013-03-21 20:40:00,38.4,17.3,29.98,NE,53,0.0,0.0,42,0.00,CLR,,0.00,WeatherDisplay:10.37,2013-03-22 00:40:00,
2013-03-21 20:50:00,37.8,19.4,29.99,NE,53,0.0,1.0,47,0.00,CLR,,0.00,WeatherDisplay:10.37,2013-03-22 00:50:00,
2013-03-21 21:00:00,37.2,21.7,29.99,NE,53,0.0,0.0,53,0.00,CLR,,0.00,WeatherDisplay:10.37,2013-03-22 01:00:00,
2013-03-21 21:10:00,36.8,20.8,29.99,NE,53,0.0,0.0,52,0.00,CLR,,0.00,WeatherDisplay:10.37,2013-03-22 01:10:00,
2013-03-21 21:20:00,36.4,21.3,30.00,NE,53,0.0,0.0,54,0.00,CLR,,0.00,WeatherDisplay:10.37,2013-03-22 01:20:00,
2013-03-21 21:30:00,36.0,20.5,30.00,NE,53,0.0,0.0,53,0.00,CLR,,0.00,WeatherDisplay:10.37,2013-03-22 01:30:00,
2013-03-21 21:40:00,35.7,21.9,30.00,NE,53,0.0,0.0,57,0.00,CLR,,0.00,WeatherDisplay:10.37,2013-03-22 01:40:00,
2013-03-21 21:50:00,35.1,23.0,30.00,NE,53,0.0,0.0,61,0.00,CLR,,0.00,WeatherDisplay:10.37,2013-03-22 01:50:00,
2013-03-21 22:00:00,34.7,20.6,30.00,NE,53,0.0,0.0,56,0.00,CLR,,0.00,WeatherDisplay:10.37,2013-03-22 02:00:00,
2013-03-21 22:10:00,34.4,21.9,30.01,NE,53,0.0,0.0,60,0.00,CLR,,0.00,WeatherDisplay:10.37,2013-03-22 02:10:00,
2013-03-21 22:20:00,34.1,22.8,30.00,NE,53,0.0,1.0,63,0.00,CLR,,0.00,WeatherDisplay:10.37,2013-03-22 02:20:00,
2013-03-21 22:30:00,33.7,22.8,30.01,NE,53,0.0,0.0,64,0.00,CLR,,0.00,WeatherDisplay:10.37,2013-03-22 02:30:00,
2013-03-21 22:40:00,33.4,22.9,30.02,NE,53,0.0,0.0,65,0.00,CLR,,0.00,WeatherDisplay:10.37,2013-03-22 02:40:00,
2013-03-21 22:50:00,33.4,21.4,30.02,NE,53,0.0,0.0,61,0.00,CLR,,0.00,WeatherDisplay:10.37,2013-03-22 02:50:00,
2013-03-21 23:00:00,33.2,23.4,30.03,NE,53,0.0,1.0,67,0.00,CLR,,0.00,WeatherDisplay:10.37,2013-03-22 03:00:00,
2013-03-21 23:10:00,32.9,23.2,30.03,NE,53,0.0,2.0,67,0.00,CLR,,0.00,WeatherDisplay:10.37,2013-03-22 03:10:00,
2013-03-21 23:20:00,32.9,23.5,30.03,NE,53,0.0,3.0,68,0.00,CLR,,0.00,WeatherDisplay:10.37,2013-03-22 03:20:00,
2013-03-21 23:30:00,32.5,24.1,30.03,NE,53,0.0,1.0,71,0.00,CLR,,0.00,WeatherDisplay:10.37,2013-03-22 03:30:00,
2013-03-21 23:40:00,32.3,21.5,30.03,NE,53,0.0,0.0,64,0.00,SCT,,0.00,WeatherDisplay:10.37,2013-03-22 03:40:00,
2013-03-21 23:50:00,33.1,21.8,30.03,NE,53,1.0,3.0,63,0.00,SCT,,0.00,WeatherDisplay:10.37,2013-03-22 03:50:00,